User: anonymous   Login
Location: Unspecified
(0.0000°N, 0.0000°E)
Time: 20:17:23
(UTC+02:00)
Language:

Palapa 6 Rocket - Orbit

View from above orbital plane
View from above orbital plane
View from above satellite
View from above satellite

Ground track
Ground track

The orbit data is extracted from the following two-line orbital elements,

1 20571U 90034B   16180.29821036  .00000582  00000-0  36757-4 0  9995
2 20571  22.7480 134.9969 0509493 293.0426  61.7104 14.11641482341961
Epoch (UTC): 28 June 2016 07:09:25
Eccentricity: 0.0509493
inclination: 22.7480°
perigee height: 485 km
apogee height: 1222 km
right ascension of ascending node: 134.9969°
argument of perigee: 293.0426°
revolutions per day: 14.11641482
mean anomaly at epoch: 61.7104°
orbit number at epoch: 34196

The dashed part of the orbit path shows where the satellite is in the earth's shadow,  

DLR